SKYSAT C4

导读 | 星芒AI

SKYSAT C4 是 Skybox Imaging(现为 Planet Labs 旗下)发射的一颗高分辨率商业地球观测卫星。它于2013年发射,具备亚米级光学成像能力,主要用于提供高清晰度的地球表面图像,服务于农业、城市规划、灾害监测等领域。SKYSAT C4 具备快速重访能力和较高的图像质量,是 SkySat 卫星系列中的重要成员,提升了 Planet Labs 的全球遥感数据获取能力。

基本信息
目录编号:
41771
目录名称:
SKYSAT C4
国际标识:
2016-058B
轨道中心:
EARTH
卫星名称:
SKYSAT C4
卫星全名:
--
卫星状态:
在轨 (已飞行3431 天)
发射日期:
2016-09-16 UTC
国别 :
美国 (US)
星等 :
--
轨道信息
数据来源 国际轨道数据 AOE轨道数据
星历时间 2026-02-06T23:03:40+0800
9小时前
查看轨道信息
2026-02-02T21:00:00+0800
4天前
查看轨道信息
半长轴 6811.668km 6812.094km
偏心率 0.0002816 0.0003084
轨道倾角 96.932° 96.931°
近地点辐角 66.540° 73.803°
升交点赤经 65.153° 61.258°
平近点角 293.615° 267.766°
近地点 431.612km 431.856km
远地点 435.45km 436.058km
周期 93.248分钟 93.257分钟
每日圈数 15.442676 15.441228
详细信息
使用方式:
暂无
2D轨道图
3D轨道图
轨道高度分析图
轨道倾角分析图
轨道综合分析图
查看轨道综合分析图